SEMI-1P

导读

SEMI-1P卫星计划于2025年11月2日发射,当前发射国家仍未明确标注。作为一颗待发射卫星,其具体任务定位、运行轨道、功能设计等关键信息暂未公开,相关筹备工作仍在推进中,该卫星的成功发射或将为对应领域的空间探测、技术验证或应用服务带来新的进展,后续信息有待进一步披露。

基本信息
目录编号:
66298
目录名称:
SEMI-1P
国际标识:
2025-248F
轨道中心:
EARTH
卫星名称:
SEMI-1P
卫星全名:
SEMI-1P
卫星状态:
在轨 (已飞行307 天)
发射日期:
2025-11-02 UTC
国别 :
土耳其 (TR)
星等 :
--
轨道信息
数据来源 国际轨道数据
星历时间: 2026-09-05T18:07:44+0800
7小时前
查看轨道信息
半长轴: 6878.55km
偏心率: 0.0010418
轨道倾角: 45.396°
近地点辐角 124.282°
升交点赤经 48.877°
平近点角 235.906°
近地点: 493.246km
远地点: 507.58km
周期: 94.625分钟
每日圈数: 15.217996
详细信息
使用方式:
暂无
2D轨道图
3D轨道图
轨道高度分析图
轨道倾角分析图
轨道综合分析图
查看轨道综合分析图